SCP
0 0 0 0 0 0 0 -0 0 0 0 0 0 0 0 0 0 0 0 0 0 0 0 0 0 0 0
0 0 0 0 0 0 0 0 0 0 0 0 0 0 0 0 0 0 0 0 0 0 0 0 0 0 0
0 0 0 0 0 0 0 0 0 0 0 0 0 0 0 0 0 0 0 0 0 0 0 0 0 0 0
0 0 0 0 0 0 0 0 0 0 0 0 0 0 0 0 0 0 0 0 0 0 0 0 0 0 0
0 0 0 0 0 0 0 0 0 0 0 0 0 0 0 0 0 0 0 0 0 0 0 0 0 0 0
0 0 0 0 0 0 0 0 0 0 0 0 0 0 0 0 0 0 0 0 0 0 0 0 0 0 0
0 0 0 0 0 0 0 0 0 0 0 0 0 0 0 0 0 0 0 0 0 0 0 0 0 0 0
0 0 0 0 0 0 0 0 0 0 0 0 0 0 0 0 0 0 0 0 0 0 0 0 0 0 0
0 0 0 0 0 0 0 0 0 0 0 0 0 0 0 0 0 0 0 0 0 0 0 0 0 0 0
0 0 0 0 0 0 0 0 0 0 0 0 0 0 0 0 0 0 0 0 0 0 0 0 0 0 0
0 0 0 0 0 0 0 0 0 0 0 0 0 0 0 0 0 0 0 0 0 0 0 0 0 0 0
0 0 0 0 0 0 0 0 0 0 0 0 0 0 0 0 0 0 0 0 0 0 0 0 0 0 0
0 0 0 0 0 0 1 0 0 0 0 0 0 0 0 0 0 0 0 0 0 0 0 0 0 0 0
0 0 0 0 0 1 0 0 0 0 0 0 0 0 0 0 0 0 0 0 0 0 0 0 0 0 0
0 0 0 0 0 0 0 0 0 0 0 0 0 0 0 1 0 0 0 0 0 0 0 0 0 0 0
0 0 0 0 0 0 0 0 0 0 0 0 0 0 0 0 0 0 0 0 0 0 0 0 0 0 0
Wind_Speed_500mb
12 12 11 11 11 10 7 16 17 17 17 18 19 18 23 18 16 13 13 13 15 18 21 22 22 20 16
13 15 15 15 14 13 12 12 20 20 19 22 26 24 20 21 21 22 18 19 20 21 22 22 22 22 20
16 21 18 20 20 19 17 16 17 19 16 21 20 27 31 24 22 24 22 24 26 27 26 26 24 23 20
20 20 20 20 22 23 21 20 20 18 19 25 27 31 32 32 31 31 24 25 28 23 24 29 27 23 24
24 24 25 23 24 25 27 26 23 22 24 25 28 28 28 31 33 31 34 32 32 23 25 29 28 31 32
26 32 28 30 26 27 25 28 30 29 27 26 25 24 28 25 30 29 32 35 37 38 38 36 36 37 37
28 29 34 34 33 30 30 29 32 32 29 27 28 28 29 31 32 32 32 35 38 40 40 42 42 42 42
29 30 30 32 35 35 32 33 33 33 32 31 30 32 31 31 32 38 44 42 41 40 41 42 45 45 46
30 29 31 33 37 39 36 34 36 35 33 33 31 33 36 36 36 37 40 44 47 43 45 45 46 48 50
33 32 29 31 33 39 37 37 38 34 34 35 36 39 38 37 39 38 39 43 48 51 52 48 50 52 55
40 40 37 35 34 32 35 37 40 39 35 34 40 39 37 43 46 44 44 45 49 53 54 56 57 58 61
42 40 39 37 36 29 33 32 34 33 36 34 35 37 39 42 44 48 51 52 54 59 60 61 62 62 60
33 31 31 28 26 25 28 30 34 31 32 38 39 34 35 37 44 44 50 52 56 59 64 72 81 80 74
28 14 16 12 12 14 20 18 19 27 27 31 29 30 32 36 39 42 43 48 53 55 60 62 45 54 52
20 24 20 16 17 21 19 16 16 19 18 22 24 25 28 31 40 46 48 49 53 55 58 53 32 36 47
7 9 11 13 15 16 14 15 15 16 20 24 26 31 32 35 35 38 44 45 47 53 56 58 66 68 54
Wind_Direction_500mb
257 264 275 281 292 304 278 231 235 228 241 231 250 258 255 256 264 254 255 259 258 258 263 270 279 288 291
264 257 265 268 271 278 279 265 243 248 257 245 235 249 253 250 253 261 246 253 259 266 269 273 277 282 281
252 261 266 264 264 265 266 265 261 258 262 280 263 252 266 272 259 259 260 255 259 259 264 269 273 278 266
251 253 273 272 268 266 260 259 258 252 247 243 247 266 264 272 274 280 279 272 279 280 286 281 269 269 260
251 257 261 262 261 260 256 254 247 247 255 266 264 274 272 268 270 275 287 277 276 277 250 259 265 272 275
246 251 254 260 255 266 266 256 249 257 255 257 259 262 265 260 271 267 256 261 261 264 269 264 266 270 273
250 256 256 255 270 255 251 259 254 252 259 259 262 262 265 267 266 263 263 268 270 272 268 271 276 275 274
250 249 254 253 259 270 260 255 259 261 252 249 257 268 270 268 270 277 283 280 275 273 272 274 275 275 277
259 256 253 253 256 260 267 259 252 256 258 261 261 263 266 266 269 266 269 270 273 273 274 276 277 281 280
268 262 257 253 251 261 257 255 266 255 255 264 270 272 272 267 271 265 271 272 276 281 280 280 276 283 287
273 267 262 259 256 248 258 256 250 262 266 260 263 268 263 269 271 271 268 265 275 278 278 281 283 282 284
272 270 263 256 257 249 250 253 260 258 269 264 264 268 270 268 275 276 272 269 273 279 279 278 278 279 283
272 266 262 257 257 253 249 246 249 252 252 266 275 270 267 277 279 282 284 283 278 278 283 280 282 283 280
250 247 243 245 237 229 237 248 249 251 254 259 269 273 276 273 279 284 290 289 284 276 279 289 288 297 278
249 233 226 218 209 224 233 259 283 291 288 275 266 271 279 281 284 290 293 295 293 287 284 280 284 281 293
222 202 207 201 223 243 264 275 274 273 269 276 272 271 272 275 276 277 284 291 295 293 293 288 282 280 290
Wind_Speed_850mb
12 12 11 11 11 10 7 16 17 17 17 18 19 18 23 18 16 13 13 13 15 18 21 22 22 20 16
13 15 15 15 14 13 12 12 20 20 19 22 26 24 20 21 21 22 18 19 20 21 22 22 22 22 20
16 21 18 20 20 19 17 16 17 19 16 21 20 27 31 24 22 24 22 24 26 27 26 26 24 23 20
20 20 20 20 22 23 21 20 20 18 19 25 27 31 32 32 31 31 24 25 28 23 24 29 27 23 24
24 24 25 23 24 25 27 26 23 22 24 25 28 28 28 31 33 31 34 32 32 23 25 29 28 31 32
26 32 28 30 26 27 25 28 30 29 27 26 25 24 28 25 30 29 32 35 37 38 38 36 36 37 37
28 29 34 34 33 30 30 29 32 32 29 27 28 28 29 31 32 32 32 35 38 40 40 42 42 42 42
29 30 30 32 35 35 32 33 33 33 32 31 30 32 31 31 32 38 44 42 41 40 41 42 45 45 46
30 29 31 33 37 39 36 34 36 35 33 33 31 33 36 36 36 37 40 44 47 43 45 45 46 48 50
33 32 29 31 33 39 37 37 38 34 34 35 36 39 38 37 39 38 39 43 48 51 52 48 50 52 55
40 40 37 35 34 32 35 37 40 39 35 34 40 39 37 43 46 44 44 45 49 53 54 56 57 58 61
42 40 39 37 36 29 33 32 34 33 36 34 35 37 39 42 44 48 51 52 54 59 60 61 62 62 60
33 31 31 28 26 25 28 30 34 31 32 38 39 34 35 37 44 44 50 52 56 59 64 72 81 80 74
28 14 16 12 12 14 20 18 19 27 27 31 29 30 32 36 39 42 43 48 53 55 60 62 45 54 52
20 24 20 16 17 21 19 16 16 19 18 22 24 25 28 31 40 46 48 49 53 55 58 53 32 36 47
7 9 11 13 15 16 14 15 15 16 20 24 26 31 32 35 35 38 44 45 47 53 56 58 66 68 54
Wind_Direction_850mb
257 264 275 281 292 304 278 231 235 228 241 231 250 258 255 256 264 254 255 259 258 258 263 270 279 288 291
264 257 265 268 271 278 279 265 243 248 257 245 235 249 253 250 253 261 246 253 259 266 269 273 277 282 281
252 261 266 264 264 265 266 265 261 258 262 280 263 252 266 272 259 259 260 255 259 259 264 269 273 278 266
251 253 273 272 268 266 260 259 258 252 247 243 247 266 264 272 274 280 279 272 279 280 286 281 269 269 260
251 257 261 262 261 260 256 254 247 247 255 266 264 274 272 268 270 275 287 277 276 277 250 259 265 272 275
246 251 254 260 255 266 266 256 249 257 255 257 259 262 265 260 271 267 256 261 261 264 269 264 266 270 273
250 256 256 255 270 255 251 259 254 252 259 259 262 262 265 267 266 263 263 268 270 272 268 271 276 275 274
250 249 254 253 259 270 260 255 259 261 252 249 257 268 270 268 270 277 283 280 275 273 272 274 275 275 277
259 256 253 253 256 260 267 259 252 256 258 261 261 263 266 266 269 266 269 270 273 273 274 276 277 281 280
268 262 257 253 251 261 257 255 266 255 255 264 270 272 272 267 271 265 271 272 276 281 280 280 276 283 287
273 267 262 259 256 248 258 256 250 262 266 260 263 268 263 269 271 271 268 265 275 278 278 281 283 282 284
272 270 263 256 257 249 250 253 260 258 269 264 264 268 270 268 275 276 272 269 273 279 279 278 278 279 283
272 266 262 257 257 253 249 246 249 252 252 266 275 270 267 277 279 282 284 283 278 278 283 280 282 283 280
250 247 243 245 237 229 237 248 249 251 254 259 269 273 276 273 279 284 290 289 284 276 279 289 288 297 278
249 233 226 218 209 224 233 259 283 291 288 275 266 271 279 281 284 290 293 295 293 287 284 280 284 281 293
222 202 207 201 223 243 264 275 274 273 269 276 272 271 272 275 276 277 284 291 295 293 293 288 282 280 290